Regional Weather Roundup
Issued by NWS

Home | Current Version | Previous Version | Graphics & Text | Print | Product List | Glossary On
Versions: 1 2 3 4 5 6 7 8 9 10 11 12 13 14 15 16 17 18 19 20 21 22 23 24 25 26 27
000
ASUS45 KSLC 232010
RWRUT

UTAH REGIONAL WEATHER ROUNDUP
NATIONAL WEATHER SERVICE SALT LAKE CITY UT
200 PM MDT SAT SEP 23 2017

UTZ001>011-023>025-232100-

NORTHERN UTAH

CITY           SKY/WX    TMP DP  RH WIND       PRES   REMARKS
BRIGHAM CITY   CLOUDY    53  33  45 CALM      29.95F
HILL AFB         N/A     50  35  56 W7        29.93F
LOGAN          CLOUDY    50  36  58 VRB5      29.96F
OGDEN          CLOUDY    51  38  60 NW10      29.93F
SALT LAKE CITY CLOUDY    55  37  50 NW12      29.93F
TOOELE VALLEY  CLOUDY    50  36  57 N6        29.95F
WENDOVER       PTSUNNY   53  31  42 NE10      29.98S
HEBER CITY     CLOUDY    46  32  57 N12       29.91F
WEST JORDAN    CLOUDY    51  42  71 NW8G17    29.94F

$$

UTZ011>015-024>027-232100-

CENTRAL/NORTHEAST UTAH

CITY           SKY/WX    TMP DP  RH WIND       PRES   REMARKS
PROVO AIRPORT  CLOUDY    52  36  54 S3        29.92F
MOAB/CANYONLAN MOSUNNY   67  41  38 NE15G25   29.75F
DELTA          CLOUDY    50  32  50 N5        29.93F
PRICE          MOSUNNY   61  23  23 VRB6      29.82F
RICHFIELD      CLOUDY    46  36  66 N6        29.94F
ROOSEVELT      CLOUDY    59  34  38 E8        29.88F
VERNAL         CLOUDY    57  38  48 E6        29.87F

$$

UTZ013>016-019>022-027-232100-

SOUTHERN UTAH

CITY           SKY/WX    TMP DP  RH WIND       PRES   REMARKS
BRYCE CANYON   CLOUDY    47  28  47 NW10      29.89S
CEDAR CITY     CLOUDY    46  36  68 NE7       29.93F
MILFORD        CLOUDY    47  36  65 N13       29.94F
ST GEORGE      PTCLDY    64  32  30 NW13      29.84F
HANKSVILLE     SUNNY     68  23  18 CALM      29.77F
KANAB          MOSUNNY   63  23  22 SW14      29.87S
BLANDING         N/A     54  47  76 SE10G20   29.90F

$$

REGIONAL REPORTS     COLORADO/ARIZONA

CITY           SKY/WX    TMP DP  RH WIND       PRES   REMARKS
CRAIG, CO      CLOUDY    54  38  54 S9        29.92R
GRAND JUNCTION MOSUNNY   61  43  51 SE20G26   29.83F
RIFLE, CO      LGT RAIN  53  48  83 E7        29.92F
MONTROSE, CO   CLOUDY    55  44  66 SE12      29.94F
CORTEZ, CO     CLOUDY    59  47  64 S13       29.87F
PAGE, AZ       SUNNY     70  21  15 NW10G17   29.75F
GRAND CANYON   SUNNY     60  13  15 SW16G31   29.89F
KINGMAN, AZ    PTSUNNY   70  28  21 CALM      29.84F
FLAGSTAFF, AZ  SUNNY     57  10  15 S21G32    29.91F

$$

REGIONAL REPORTS    NEVADA/IDAHO/WYOMING

CITY           SKY/WX    TMP DP  RH WIND       PRES   REMARKS
LAS VEGAS, NV  MOSUNNY   73  27  18 N14G28    29.83S
ELY, NY        CLOUDY    44  32  62 N10       29.97F
ELKO, NV       SUNNY     49  32  52 VRB3      30.01F
POCATELLO, ID  MOSUNNY   50  33  52 VRB3      30.02F
BURLEY, ID     PTSUNNY   49  35  58 VRB7      30.01F
FORT BRIDGER,  CLOUDY    43  39  86 NE7       29.98S
EVANSTON, WY   CLOUDY    41  34  76 N9        29.96S
ROCK SPRINGS,  CLOUDY    42  39  89 E9        29.95S
KEMMERER, WY     N/A     45  34  65 E5        29.96F

$$




USA.gov is the U.S. government's official web portal to all federal, state and local government web resources and services.